FW3706 Weather Reports


Display with metric or nautical units.
time (UTC)temp
F
wind
direction
speed
MPH
gust
MPH
rain 1hr
in
rain 24hr
in
rain mn
in
humidity
%
barometer
mb
20260903060505 83 360 0.0 0.0 0.00 0.00 0.00 56 1015.4
20260903060019 83 11 0.0 0.0 0.00 0.00 0.00 56 1015.4
20260903055507 83 9 0.0 0.0 0.00 0.00 0.00 56 1015.4
20260903055006 84 11 0.0 1.0 0.00 0.00 0.00 55 1015.4
20260903054516 84 360 0.0 1.0 0.00 0.00 0.00 55 1015.4
20260903054008 84 10 0.0 3.0 0.00 0.00 0.00 55 1015.5
20260903053506 84 12 0.0 3.0 0.00 0.00 0.00 55 1015.5
20260903053028 84 9 0.0 2.0 0.00 0.00 0.00 55 1015.5
20260903052507 84 10 0.0 5.0 0.00 0.00 0.00 55 1015.6
20260903052007 84 360 1.0 5.0 0.00 0.00 0.00 55 1015.6
20260903051516 84 360 2.0 5.0 0.00 0.00 0.00 55 1015.6
20260903051007 84 360 2.0 5.0 0.00 0.00 0.00 55 1015.6
20260903050505 84 360 1.0 5.0 0.00 0.00 0.00 55 1015.5
20260903050029 84 360 1.0 5.0 0.00 0.00 0.00 55 1015.5
20260903045505 85 360 1.0 3.0 0.00 0.00 0.00 55 1015.5
20260903045001 85 11 0.0 5.0 0.00 0.00 0.00 54 1015.5
20260903044516 85 360 0.0 5.0 0.00 0.00 0.00 54 1015.5
20260903044006 85 360 1.0 3.0 0.00 0.00 0.00 54 1015.4
20260903043507 85 360 0.0 4.0 0.00 0.00 0.00 54 1015.5
20260903043029 85 360 0.0 5.0 0.00 0.00 0.00 54 1015.5
20260903042510 85 360 1.0 5.0 0.00 0.00 0.00 53 1015.3
20260903042005 85 360 0.0 5.0 0.00 0.00 0.00 53 1015.3
20260903041524 86 360 2.0 5.0 0.00 0.00 0.00 53 1015.1
20260903041006 86 360 1.0 5.0 0.00 0.00 0.00 53 1015.1
20260903040502 86 360 0.0 8.0 0.00 0.00 0.00 53 1015.1
20260903040018 86 360 3.0 8.0 0.00 0.00 0.00 53 1015.1
20260903035507 86 8 2.0 5.0 0.00 0.00 0.00 53 1015.1
20260903035006 86 6 1.0 5.0 0.00 0.00 0.00 53 1014.9
20260903034517 86 6 0.0 5.0 0.00 0.00 0.00 53 1015.0
20260903034010 86 6 0.0 4.0 0.00 0.00 0.00 53 1014.9
20260903033506 86 8 0.0 4.0 0.00 0.00 0.00 53 1014.9
20260903033019 86 8 0.0 6.0 0.00 0.00 0.00 53 1014.8
20260903032507 86 11 1.0 6.0 0.00 0.00 0.00 53 1014.7
20260903032002 86 10 0.0 4.0 0.00 0.00 0.00 53 1014.6
20260903031518 86 360 0.0 3.0 0.00 0.00 0.00 53 1014.6
20260903031006 86 360 0.0 3.0 0.00 0.00 0.00 53 1014.5
20260903030506 86 360 0.0 3.0 0.00 0.00 0.00 53 1014.5
20260903030023 86 360 0.0 3.0 0.00 0.00 0.00 52 1014.3
20260903025510 87 360 0.0 3.0 0.00 0.00 0.00 51 1014.2
20260903025004 87 360 0.0 3.0 0.00 0.00 0.00 50 1014.2
20260903024519 87 360 0.0 3.0 0.00 0.00 0.00 49 1014.2
20260903024008 87 360 0.0 3.0 0.00 0.00 0.00 48 1014.2
20260903023505 87 360 0.0 2.0 0.00 0.00 0.00 46 1014.2
20260903023019 88 6 0.0 2.0 0.00 0.00 0.00 46 1014.1
20260903022507 88 6 0.0 2.0 0.00 0.00 0.00 45 1013.9
20260903022004 88 6 0.0 2.0 0.00 0.00 0.00 44 1014.0
20260903021520 88 7 0.0 2.0 0.00 0.00 0.00 44 1014.1
20260903021005 88 8 0.0 3.0 0.00 0.00 0.00 44 1014.1
20260903020504 88 6 0.0 3.0 0.00 0.00 0.00 43 1014.0
20260903020020 89 6 0.0 3.0 0.00 0.00 0.00 43 1014.0
20260903015508 89 6 0.0 4.0 0.00 0.00 0.00 44 1014.0
20260903015007 89 6 0.0 4.0 0.00 0.00 0.00 43 1014.1
20260903014523 89 6 1.0 3.0 0.00 0.00 0.00 43 1014.0
20260903014010 90 6 0.0 3.0 0.00 0.00 0.00 44 1014.0
20260903013512 90 6 0.0 2.0 0.00 0.00 0.00 44 1013.9
20260903013024 90 6 0.0 3.0 0.00 0.00 0.00 43 1013.9
20260903012509 90 6 0.0 6.0 0.00 0.00 0.00 44 1013.9
20260903012011 90 6 0.0 4.0 0.00 0.00 0.00 45 1013.8
20260903011528 90 5 0.0 5.0 0.00 0.00 0.00 44 1013.8
20260903011008 90 5 1.0 5.0 0.00 0.00 0.00 44 1013.8
20260903010512 90 6 1.0 5.0 0.00 0.00 0.00 44 1013.7
20260903010024 91 5 0.0 4.0 0.00 0.00 0.00 43 1013.7
20260903005508 91 155 0.0 4.0 0.00 0.00 0.00 44 1013.6
20260903005012 91 184 0.0 4.0 0.00 0.00 0.00 43 1013.6
20260903004525 91 180 1.0 7.0 0.00 0.00 0.00 43 1013.8
20260903004009 91 168 0.0 7.0 0.00 0.00 0.00 43 1013.8
20260903003510 91 144 0.0 6.0 0.00 0.00 0.00 44 1013.8
20260903003022 91 191 2.0 6.0 0.00 0.00 0.00 43 1013.9
20260903002513 90 169 2.0 10.0 0.00 0.00 0.00 44 1013.9
20260903002005 90 190 2.0 10.0 0.00 0.00 0.00 45 1013.8
20260903001524 90 168 3.0 8.0 0.00 0.00 0.00 44 1013.9
20260903001006 91 146 3.0 8.0 0.00 0.00 0.00 44 1013.9
20260903000504 91 150 2.0 7.0 0.00 0.00 0.00 44 1013.9
20260903000031 91 129 1.0 8.0 0.00 0.00 0.00 43 1013.9
20260902235510 92 183 2.0 8.0 0.00 0.00 0.00 42 1013.8
20260902235014 93 47 0.0 6.0 0.00 0.00 0.00 41 1013.8
20260902234526 93 293 0.0 2.0 0.00 0.00 0.00 38 1013.9
20260902234007 93 292 0.0 2.0 0.00 0.00 0.00 39 1013.9
20260902233504 93 293 0.0 2.0 0.00 0.00 0.00 40 1013.9
20260902233027 93 289 0.0 2.0 0.00 0.00 0.00 40 1013.8
20260902232506 93 289 0.0 1.0 0.00 0.00 0.00 40 1013.8
20260902232003 92 289 0.0 2.0 0.00 0.00 0.00 40 1013.8
20260902231526 92 289 0.0 2.0 0.00 0.00 0.00 42 1013.8
20260902231007 92 289 0.0 3.0 0.00 0.00 0.00 42 1013.9
20260902230503 92 289 0.0 3.0 0.00 0.00 0.00 41 1014.1
20260902230027 91 289 0.0 3.0 0.00 0.00 0.00 42 1014.2
20260902225512 91 285 0.0 3.0 0.00 0.00 0.00 44 1014.3
20260902225005 91 285 0.0 3.0 0.00 0.00 0.00 44 1014.3
20260902224526 92 288 0.0 3.0 0.00 0.00 0.00 45 1014.5
20260902224007 92 295 0.0 3.0 0.00 0.00 0.00 45 1014.6
20260902223511 92 297 1.0 7.0 0.00 0.00 0.00 44 1014.5
20260902223029 92 292 1.0 11.0 0.00 0.00 0.00 46 1014.4
20260902222511 92 254 4.0 11.0 0.00 0.00 0.00 45 1014.6
20260902222004 92 263 2.0 9.0 0.00 0.00 0.00 45 1014.6
20260902221533 92 269 5.0 9.0 0.00 0.00 0.00 44 1014.6
20260902221008 92 251 3.0 7.0 0.00 0.00 0.00 45 1014.6
20260902220504 92 254 4.0 7.0 0.00 0.00 0.00 44 1014.7
20260902220041 92 274 0.0 6.0 0.00 0.00 0.00 44 1014.7
20260902215508 92 270 1.0 7.0 0.00 0.00 0.00 44 1014.8
20260902215003 92 255 3.0 7.0 0.00 0.00 0.00 44 1014.9
20260902214527 92 269 1.0 6.0 0.00 0.00 0.00 44 1014.9
20260902214013 92 264 2.0 5.0 0.00 0.00 0.00 43 1014.9
20260902213504 92 249 1.0 8.0 0.00 0.00 0.00 42 1014.8
20260902213029 92 249 4.0 8.0 0.00 0.00 0.00 41 1014.7
20260902212507 93 321 0.0 6.0 0.00 0.00 0.00 41 1014.7
20260902212004 93 281 1.0 7.0 0.00 0.00 0.00 42 1014.9
20260902211526 93 267 1.0 7.0 0.00 0.00 0.00 42 1015.1
20260902211006 93 204 0.0 6.0 0.00 0.00 0.00 40 1015.2
20260902210514 93 205 2.0 7.0 0.00 0.00 0.00 40 1015.3
20260902210049 93 299 3.0 7.0 0.00 0.00 0.00 39 1015.3
20260902205506 93 286 1.0 9.0 0.00 0.00 0.00 41 1015.4
20260902205003 93 221 3.0 9.0 0.00 0.00 0.00 42 1015.4
20260902204533 93 254 4.0 9.0 0.00 0.00 0.00 41 1015.4
20260902204007 93 250 2.0 9.0 0.00 0.00 0.00 41 1015.5
20260902203510 93 272 2.0 9.0 0.00 0.00 0.00 39 1015.6
20260902203028 95 237 3.0 8.0 0.00 0.00 0.00 39 1015.6
20260902202507 95 280 1.0 9.0 0.00 0.00 0.00 41 1015.6
20260902202016 94 259 3.0 13.0 0.00 0.00 0.00 41 1015.6
20260902201530 93 274 5.0 13.0 0.00 0.00 0.00 42 1015.7
20260902201008 92 254 4.0 9.0 0.00 0.00 0.00 44 1015.8
20260902200515 92 266 6.0 9.0 0.00 0.00 0.00 43 1015.8
20260902200029 93 295 4.0 10.0 0.00 0.00 0.00 43 1015.9
20260902195507 92 289 3.0 10.0 0.00 0.00 0.00 45 1016.0
20260902195013 92 302 4.0 9.0 0.00 0.00 0.00 44 1016.1
20260902194532 93 298 2.0 8.0 0.00 0.00 0.00 44 1016.1
20260902194008 93 332 4.0 8.0 0.00 0.00 0.00 43 1016.3
20260902193515 94 278 4.0 8.0 0.00 0.00 0.00 43 1016.4
20260902193027 94 296 2.0 9.0 0.00 0.00 0.00 43 1016.5
20260902192507 93 295 4.0 9.0 0.00 0.00 0.00 44 1016.5
20260902192015 93 269 3.0 10.0 0.00 0.00 0.00 45 1016.7
20260902191531 93 261 6.0 10.0 0.00 0.00 0.00 44 1016.7
20260902191007 93 282 2.0 8.0 0.00 0.00 0.00 46 1016.8
20260902190518 92 283 1.0 10.0 0.00 0.00 0.00 46 1016.9
20260902190036 92 240 5.0 10.0 0.00 0.00 0.00 45 1016.8
20260902185509 93 264 3.0 9.0 0.00 0.00 0.00 46 1016.9
20260902185015 92 295 4.0 9.0 0.00 0.00 0.00 45 1017.1
20260902184531 93 230 2.0 9.0 0.00 0.00 0.00 46 1017.1
20260902184011 92 232 4.0 9.0 0.00 0.00 0.00 47 1017.2
20260902183515 92 227 5.0 9.0 0.00 0.00 0.00 45 1017.3
20260902183027 92 243 2.0 9.0 0.00 0.00 0.00 46 1017.4
20260902182512 92 276 2.0 7.0 0.00 0.00 0.00 46 1017.4
20260902182017 92 263 3.0 7.0 0.00 0.00 0.00 46 1017.5
20260902181524 91 214 1.0 7.0 0.00 0.00 0.00 47 1017.5
20260902181018 91 254 2.0 7.0 0.00 0.00 0.00 48 1017.6
20260902180516 91 285 2.0 7.0 0.00 0.00 0.00 48 1017.7
20260902180028 91 283 1.0 5.0 0.00 0.00 0.00 47 1017.7
20260902175508 91 262 1.0 7.0 0.00 0.00 0.00 48 1017.7
20260902175014 90 259 1.0 7.0 0.00 0.00 0.00 48 1017.7
20260902174529 90 204 1.0 8.0 0.00 0.00 0.00 49 1017.8
20260902174019 90 269 1.0 10.0 0.00 0.00 0.00 49 1017.8
20260902173516 90 264 5.0 10.0 0.00 0.00 0.00 48 1017.8
20260902173025 90 207 3.0 7.0 0.00 0.00 0.00 49 1017.8
20260902172512 90 232 2.0 6.0 0.00 0.00 0.00 49 1017.9
20260902172019 90 249 1.0 5.0 0.00 0.00 0.00 48 1017.9
20260902171525 90 246 1.0 4.0 0.00 0.00 0.00 49 1017.8
20260902171005 90 238 1.0 4.0 0.00 0.00 0.00 49 1017.8
20260902170515 89 160 0.0 5.0 0.00 0.00 0.00 49 1017.8
20260902170026 90 160 2.0 5.0 0.00 0.00 0.00 49 1017.8
20260902165508 90 117 0.0 4.0 0.00 0.00 0.00 49 1017.8
20260902165017 90 115 1.0 4.0 0.00 0.00 0.00 50 1017.9
20260902164531 89 95 0.0 3.0 0.00 0.00 0.00 52 1017.9
20260902164008 89 94 1.0 4.0 0.00 0.00 0.00 52 1017.9
20260902163516 89 99 1.0 4.0 0.00 0.00 0.00 52 1017.8
20260902163026 89 94 0.0 2.0 0.00 0.00 0.00 53 1017.9
20260902162513 88 94 0.0 5.0 0.00 0.00 0.00 55 1017.9
20260902162013 87 94 1.0 5.0 0.00 0.00 0.00 55 1018.0
20260902161523 86 94 0.0 6.0 0.00 0.00 0.00 55 1018.0
20260902161006 86 89 2.0 5.0 0.00 0.00 0.00 55 1018.0
20260902160515 86 101 2.0 5.0 0.00 0.00 0.00 55 1018.0
20260902160037 86 108 3.0 5.0 0.00 0.00 0.00 56 1017.9
20260902155504 86 63 1.0 5.0 0.00 0.00 0.00 56 1017.9
20260902155020 86 78 1.0 6.0 0.00 0.00 0.00 56 1017.9
20260902154524 86 80 2.0 5.0 0.00 0.00 0.00 57 1017.9
20260902154008 85 95 0.0 6.0 0.00 0.00 0.00 58 1017.9
20260902153516 85 77 1.0 6.0 0.00 0.00 0.00 58 1017.9
20260902153039 85 65 2.0 5.0 0.00 0.00 0.00 58 1017.9
20260902152519 84 64 0.0 5.0 0.00 0.00 0.00 58 1017.9
20260902152015 84 60 2.0 5.0 0.00 0.00 0.00 59 1017.9
20260902151523 84 71 2.0 4.0 0.00 0.00 0.00 59 1017.8
20260902151021 83 67 0.0 4.0 0.00 0.00 0.00 60 1017.8
20260902150517 83 69 1.0 6.0 0.00 0.00 0.00 60 1017.8
20260902150033 83 64 1.0 6.0 0.00 0.00 0.00 61 1017.8
20260902145517 83 79 0.0 5.0 0.00 0.00 0.00 62 1017.8
20260902145017 83 79 1.0 5.0 0.00 0.00 0.00 62 1017.8
20260902144534 82 82 1.0 4.0 0.00 0.00 0.00 62 1017.8
20260902144018 82 80 1.0 3.0 0.00 0.00 0.00 63 1017.8
20260902143516 81 80 0.0 2.0 0.00 0.00 0.00 66 1017.8
20260902143032 81 80 0.0 1.0 0.00 0.00 0.00 67 1017.8
20260902142519 80 80 0.0 0.0 0.00 0.00 0.00 69 1017.8
20260902142019 79 80 0.0 0.0 0.00 0.00 0.00 70 1017.7
20260902141536 79 37 0.0 0.0 0.00 0.00 0.00 71 1017.6
20260902141021 78 79 0.0 0.0 0.00 0.00 0.00 72 1017.6
20260902140516 78 78 0.0 0.0 0.00 0.00 0.00 74 1017.5
20260902140032 77 360 0.0 0.0 0.00 0.00 0.00 76 1017.5
20260902135516 77 79 0.0 0.0 0.00 0.00 0.00 76 1017.5
20260902135016 76 84 0.0 0.0 0.00 0.00 0.00 76 1017.4
20260902134527 76 360 0.0 0.0 0.00 0.00 0.00 76 1017.3
20260902134016 76 79 0.0 0.0 0.00 0.00 0.00 75 1017.3
20260902133518 76 79 0.0 0.0 0.00 0.00 0.00 75 1017.3
20260902133032 76 3 0.0 0.0 0.00 0.00 0.00 75 1017.2
20260902132518 76 3 0.0 0.0 0.00 0.00 0.00 75 1017.2
20260902132015 76 3 0.0 0.0 0.00 0.00 0.00 75 1017.1
20260902131530 76 3 0.0 0.0 0.00 0.00 0.00 75 1017.1
20260902131019 76 3 0.0 2.0 0.00 0.00 0.00 75 1017.0
20260902130513 76 3 0.0 3.0 0.00 0.00 0.00 74 1017.0
20260902130035 75 3 0.0 3.0 0.00 0.00 0.00 75 1016.9
20260902125515 75 3 0.0 3.0 0.00 0.00 0.00 75 1016.9
20260902125016 75 3 0.0 2.0 0.00 0.00 0.00 75 1016.9
20260902124526 75 3 0.0 1.0 0.00 0.00 0.00 75 1016.8
20260902124007 75 3 0.0 1.0 0.00 0.00 0.00 75 1016.8
20260902123504 75 3 0.0 0.0 0.00 0.00 0.00 75 1016.8
20260902123032 75 3 0.0 1.0 0.00 0.00 0.00 75 1016.8
20260902122507 76 3 0.0 1.0 0.00 0.00 0.00 75 1016.7
20260902122001 76 3 0.0 1.0 0.00 0.00 0.00 75 1016.7
20260902121525 76 3 0.0 1.0 0.00 0.00 0.00 74 1016.6
20260902121009 76 3 0.0 1.0 0.00 0.00 0.00 74 1016.6
20260902120502 76 3 0.0 2.0 0.00 0.00 0.00 74 1016.6
20260902120028 76 3 0.0 2.0 0.00 0.00 0.00 74 1016.6
20260902115507 76 3 0.0 2.0 0.00 0.00 0.00 73 1016.6
20260902115004 76 3 0.0 2.0 0.00 0.00 0.00 73 1016.6
20260902114529 76 3 0.0 1.0 0.00 0.00 0.00 73 1016.5
20260902114007 76 3 0.0 3.0 0.00 0.00 0.00 72 1016.5
20260902113504 77 3 0.0 5.0 0.00 0.00 0.00 72 1016.5
20260902113028 77 3 2.0 5.0 0.00 0.00 0.00 72 1016.5
20260902112508 77 3 1.0 4.0 0.00 0.00 0.00 72 1016.5
20260902112002 77 3 1.0 4.0 0.00 0.00 0.00 72 1016.5
20260902111525 77 3 1.0 4.0 0.00 0.00 0.00 72 1016.5
20260902111005 77 3 1.0 4.0 0.00 0.00 0.00 72 1016.5
20260902110501 77 3 1.0 4.0 0.00 0.00 0.00 72 1016.5
20260902110025 77 3 1.0 5.0 0.00 0.00 0.00 71 1016.6
20260902105506 77 3 1.0 5.0 0.00 0.00 0.00 71 1016.5
20260902105002 77 3 1.0 5.0 0.00 0.00 0.00 71 1016.6
20260902104537 77 2 1.0 4.0 0.00 0.00 0.00 71 1016.6
20260902104009 77 2 1.0 5.0 0.00 0.00 0.00 71 1016.6
20260902103504 77 2 1.0 5.0 0.00 0.00 0.00 71 1016.6
20260902103025 77 2 0.0 4.0 0.00 0.00 0.00 71 1016.6
20260902102507 77 2 1.0 4.0 0.00 0.00 0.00 71 1016.6
20260902102001 77 9 0.0 1.0 0.00 0.00 0.00 71 1016.7
20260902101535 77 9 0.0 1.0 0.00 0.00 0.00 71 1016.7
20260902101010 77 9 0.0 2.0 0.00 0.00 0.00 70 1016.6
20260902100504 77 9 0.0 2.0 0.00 0.00 0.00 70 1016.6
20260902100027 77 9 0.0 2.0 0.00 0.00 0.00 71 1016.6
20260902095507 77 9 0.0 0.0 0.00 0.00 0.00 71 1016.5
20260902095002 77 9 0.0 0.0 0.00 0.00 0.00 72 1016.5
20260902094532 77 9 0.0 1.0 0.00 0.00 0.00 72 1016.5
20260902094008 77 9 0.0 2.0 0.00 0.00 0.00 73 1016.6
20260902093503 77 9 0.0 2.0 0.00 0.00 0.00 73 1016.6
20260902093034 77 9 0.0 2.0 0.00 0.00 0.00 73 1016.6
20260902092507 77 9 0.0 2.0 0.00 0.00 0.00 73 1016.7
20260902092015 77 9 0.0 2.0 0.00 0.00 0.00 73 1016.7
20260902091527 77 9 0.0 3.0 0.00 0.00 0.00 73 1016.6
20260902091008 77 9 0.0 3.0 0.00 0.00 0.00 73 1016.5
20260902090516 77 9 0.0 2.0 0.00 0.00 0.00 72 1016.5
20260902090029 77 9 0.0 3.0 0.00 0.00 0.00 72 1016.5
20260902085507 78 9 0.0 3.0 0.00 0.00 0.00 72 1016.5
20260902085013 78 9 0.0 0.0 0.00 0.00 0.00 71 1016.5
20260902084534 78 9 0.0 0.0 0.00 0.00 0.00 71 1016.5
20260902084010 78 9 0.0 0.0 0.00 0.00 0.00 71 1016.4
20260902083515 78 9 0.0 0.0 0.00 0.00 0.00 71 1016.5
20260902083027 78 9 0.0 0.0 0.00 0.00 0.00 70 1016.5
20260902082506 78 9 0.0 0.0 0.00 0.00 0.00 70 1016.5
20260902082017 78 9 0.0 0.0 0.00 0.00 0.00 70 1016.4
20260902081526 78 9 0.0 0.0 0.00 0.00 0.00 70 1016.5
20260902081008 78 9 0.0 0.0 0.00 0.00 0.00 69 1016.4
20260902080516 78 9 0.0 0.0 0.00 0.00 0.00 69 1016.3
20260902080030 79 9 0.0 0.0 0.00 0.00 0.00 69 1016.2
20260902075510 79 9 0.0 0.0 0.00 0.00 0.00 69 1016.1
20260902075015 79 9 0.0 0.0 0.00 0.00 0.00 68 1016.1
20260902074526 79 9 0.0 0.0 0.00 0.00 0.00 68 1016.1
20260902074008 79 9 0.0 1.0 0.00 0.00 0.00 68 1016.1
20260902073515 79 9 0.0 2.0 0.00 0.00 0.00 68 1016.2
20260902073034 79 9 0.0 3.0 0.00 0.00 0.00 68 1016.2
20260902072507 79 9 0.0 3.0 0.00 0.00 0.00 68 1016.3
20260902072018 79 9 0.0 2.0 0.00 0.00 0.00 67 1016.3
20260902071528 79 9 0.0 2.0 0.00 0.00 0.00 66 1016.3
20260902071007 79 9 0.0 2.0 0.00 0.00 0.00 66 1016.3
20260902070515 79 8 0.0 3.0 0.00 0.00 0.00 66 1016.3
20260902070036 79 10 0.0 3.0 0.00 0.00 0.00 66 1016.3
20260902065512 79 9 0.0 0.0 0.00 0.00 0.00 66 1016.2
20260902065016 80 360 0.0 0.0 0.00 0.00 0.00 66 1016.3
20260902064528 80 11 0.0 0.0 0.00 0.00 0.00 65 1016.2
20260902064007 80 360 0.0 0.0 0.00 0.00 0.00 64 1016.1
20260902063522 80 360 0.0 0.0 0.00 0.00 0.00 63 1016.0
20260902063029 80 360 0.0 0.0 0.00 0.00 0.00 63 1016.1
20260902062512 80 360 0.0 0.0 0.00 0.00 0.00 63 1016.0
20260902062017 81 360 0.0 0.0 0.00 0.00 0.00 63 1016.0
20260902061542 81 360 0.0 0.0 0.00 0.00 0.00 63 1016.0
20260902061006 81 360 0.0 0.0 0.00 0.00 0.00 63 1016.0